Date String (YYYY-MM-DD hh:mm:ss) UTC,Instrument flags,absolute air pressure of the measurement (hPa),sample flow rate (lpm),inlet stack bypass flow (lpm),air temperature of the measurement (°C),ambient temperature measured by the external sensor (°C),aerosol sample conditioner tube jacket temperature (°C),OPC LED temperature (°C),internal box temperature (°C),relative humidity of the measurement (%),span deviation,mass concentration of particles derived from Lorenz-Mie calculation of OPC scattering (μg/m³),mass concentration of particles derived from Lorenz-Mie calculation of OPC scattering (μg/m³),mass concentration of particles derived from Lorenz-Mie calculation of OPC scattering (μg/m³)
DateTimeUTC,F1_M11,P_M11,Q1_M11,Q2_M11,T1_M11,T2_M11,T3_M11,T4_M11,T5_M11,U1_M11,ZSPAN_M11,X0_M11,X2_M11,X1_M11
2024-03-23 06:00:00,SystemResetWarning,0826.8,4.98,000.00,024.3,023.5,000.0,032.9,026.2,13.7,0000.0,0013.54,0004.40,0002.64
2024-03-23 06:01:00,SystemResetWarning,0826.8,5.00,000.00,024.3,023.5,000.0,032.9,026.2,14.0,0000.0,0013.59,0004.47,0002.80
2024-03-23 06:02:00,SystemResetWarning,0826.8,5.00,000.00,024.3,023.5,000.0,032.9,026.2,14.1,0000.0,0013.63,0004.59,0002.96
2024-03-23 06:03:00,SystemResetWarning,0826.8,5.01,000.00,024.3,023.5,000.0,032.9,026.1,14.1,0000.0,0014.59,0004.65,0003.13
2024-03-23 06:04:00,SystemResetWarning,0826.8,5.01,000.00,024.3,023.5,000.0,032.8,026.2,14.0,0000.0,0014.22,0004.67,0003.24
2024-03-23 06:05:00,SystemResetWarning,0826.7,5.00,000.00,024.3,023.5,000.0,032.9,026.2,14.3,0000.0,0014.17,0004.81,0003.36
2024-03-23 06:06:00,SystemResetWarning,0826.7,4.99,000.00,024.3,023.5,000.0,032.8,026.1,14.4,0000.0,0015.43,0004.99,0003.51
2024-03-23 06:07:00,SystemResetWarning,0826.6,5.00,000.00,024.3,023.4,000.0,032.8,026.1,14.5,0000.0,0015.96,0005.13,0003.60
2024-03-23 06:08:00,SystemResetWarning,0826.6,5.00,000.00,024.2,023.4,000.0,032.8,026.1,14.5,0000.0,0016.17,0005.29,0003.68
2024-03-23 06:09:00,SystemResetWarning,0826.6,5.00,000.00,024.2,023.4,000.0,032.8,026.1,14.6,0000.0,0016.58,0005.36,0003.77
2024-03-23 06:10:00,SystemResetWarning,0826.7,5.00,000.00,024.2,023.5,000.0,032.8,026.1,14.7,0000.0,0017.52,0005.39,0003.85
2024-03-23 06:11:00,SystemResetWarning,0826.8,5.00,000.00,024.2,023.5,000.0,032.8,026.1,14.9,0000.0,0017.33,0005.46,0003.92
2024-03-23 06:12:00,SystemResetWarning,0826.8,5.01,000.00,024.2,023.5,000.0,032.8,026.1,15.0,0000.0,0017.37,0005.46,0003.96
2024-03-23 06:13:00,SystemResetWarning,0826.8,5.01,000.00,024.2,023.4,000.0,032.8,026.1,15.1,0000.0,0017.23,0005.48,0004.01
2024-03-23 06:14:00,SystemResetWarning,0826.8,4.99,000.00,024.2,023.4,000.0,032.8,026.1,15.3,0000.0,0016.63,0005.59,0004.04
2024-03-23 06:15:00,SystemResetWarning,0826.8,5.00,000.00,024.2,023.4,000.0,032.8,026.1,15.1,0000.0,0017.21,0005.64,0004.07
2024-03-23 06:16:00,SystemResetWarning,0826.8,5.00,000.00,024.2,023.4,000.0,032.8,026.1,14.8,0000.0,0018.18,0005.69,0004.10
2024-03-23 06:17:00,SystemResetWarning,0826.8,5.01,000.00,024.2,023.4,000.0,032.8,026.1,14.2,0000.0,0017.31,0005.65,0004.05
2024-03-23 06:18:00,SystemResetWarning,0826.8,5.01,000.00,024.2,023.4,000.0,032.8,026.1,14.2,0000.0,0016.39,0005.60,0004.00
2024-03-23 06:19:00,SystemResetWarning,0826.8,5.01,000.00,024.2,023.3,000.0,032.8,026.1,14.0,0000.0,0015.81,0005.54,0003.96
2024-03-23 06:20:00,SystemResetWarning,0826.8,4.99,000.00,024.2,023.3,000.0,032.8,026.1,13.9,0000.0,0015.27,0005.51,0003.92
2024-03-23 06:21:00,SystemResetWarning,0826.8,4.99,000.00,024.2,023.3,000.0,032.8,026.0,13.7,0000.0,0014.88,0005.47,0003.85
2024-03-23 06:22:00,SystemResetWarning,0826.8,5.00,000.00,024.2,023.2,000.0,032.8,026.0,13.7,0000.0,0014.16,0005.38,0003.76
2024-03-23 06:23:00,SystemResetWarning,0826.8,5.01,000.00,024.2,023.2,000.0,032.8,026.0,14.0,0000.0,0013.88,0005.28,0003.67
2024-03-23 06:24:00,SystemResetWarning,0826.8,5.01,000.00,024.1,023.2,000.0,032.8,026.0,14.2,0000.0,0013.82,0005.25,0003.61
2024-03-23 06:25:00,SystemResetWarning,0826.7,4.98,000.00,024.1,023.2,000.0,032.8,026.0,14.4,0000.0,0014.08,0005.12,0003.54
2024-03-23 06:26:00,SystemResetWarning,0826.6,5.01,000.00,024.1,023.1,000.0,032.8,026.0,14.6,0000.0,0013.75,0005.05,0003.50
2024-03-23 06:27:00,SystemResetWarning,0826.6,5.01,000.00,024.1,023.1,000.0,032.8,026.0,14.8,0000.0,0013.27,0005.05,0003.49
2024-03-23 06:28:00,SystemResetWarning,0826.6,4.99,000.00,024.1,023.1,000.0,032.8,026.0,15.1,0000.0,0012.91,0005.08,0003.53
2024-03-23 06:29:00,SystemResetWarning,0826.6,4.99,000.00,024.1,023.1,000.0,032.8,026.0,15.2,0000.0,0013.83,0005.16,0003.62
2024-03-23 06:30:00,SystemResetWarning,0826.6,5.00,000.00,024.1,023.1,000.0,032.8,026.0,15.1,0000.0,0014.60,0005.19,0003.69
2024-03-23 06:31:00,SystemResetWarning,0826.6,5.00,000.00,024.1,023.2,000.0,032.7,026.0,15.4,0004.1,0015.13,0005.31,0003.79
2024-03-23 06:32:00,SystemResetWarning,0826.6,5.01,000.00,024.1,023.2,000.0,032.7,026.0,15.4,0004.9,0015.09,0005.47,0003.92
2024-03-23 06:33:00,SystemResetWarning,0826.6,5.01,000.00,024.1,023.2,000.0,032.7,025.9,15.4,0005.0,0015.81,0005.62,0004.04
2024-03-23 06:34:00,SystemResetWarning,0826.6,4.99,000.00,024.1,023.2,000.0,032.7,025.9,15.6,0005.2,0016.06,0005.74,0004.16
2024-03-23 06:35:00,SystemResetWarning,0826.6,4.98,000.00,024.1,023.2,000.0,032.7,026.0,15.6,0005.1,0016.91,0005.87,0004.28
2024-03-23 06:36:00,SystemResetWarning,0826.6,5.00,000.00,024.1,023.1,000.0,032.7,025.9,15.7,0005.0,0016.88,0006.01,0004.38
2024-03-23 06:37:00,SystemResetWarning,0826.6,5.01,000.00,024.1,023.1,000.0,032.7,025.9,15.9,0005.0,0017.11,0006.11,0004.45
2024-03-23 06:38:00,SystemResetWarning,0826.6,5.00,000.00,024.0,023.2,000.0,032.7,025.9,16.1,0005.0,0016.62,0006.15,0004.50
2024-03-23 06:39:00,SystemResetWarning,0826.6,5.01,000.00,024.0,023.2,000.0,032.7,025.9,16.0,0005.0,0016.99,0006.23,0004.53
2024-03-23 06:40:00,SystemResetWarning,0826.6,5.00,000.00,024.0,023.2,000.0,032.7,025.9,16.2,0005.0,0016.42,0006.28,0004.55
2024-03-23 06:41:00,SystemResetWarning,0826.6,4.99,000.00,024.0,023.2,000.0,032.7,025.9,16.2,0005.2,0016.69,0006.37,0004.57
2024-03-23 06:42:00,SystemResetWarning,0826.6,4.99,000.00,024.0,023.2,000.0,032.7,025.9,16.2,0005.5,0018.50,0006.45,0004.59
2024-03-23 06:43:00,SystemResetWarning,0826.6,5.00,000.00,024.0,023.2,000.0,032.7,025.9,16.4,0001.1,0019.25,0006.45,0004.56
2024-03-23 06:44:00,SystemResetWarning,0826.5,5.01,000.00,024.0,023.2,000.0,032.7,025.9,16.5,0000.0,0020.09,0006.47,0004.55
2024-03-23 06:45:00,SystemResetWarning,0826.4,5.01,000.00,024.0,023.2,000.0,032.7,025.9,16.5,0000.0,0021.42,0006.53,0004.55
2024-03-23 06:46:00,SystemResetWarning,0826.4,5.00,000.00,024.0,023.2,000.0,032.7,025.9,16.4,0000.0,0021.32,0006.49,0004.50
2024-03-23 06:47:00,SystemResetWarning,0826.4,4.99,000.00,024.0,023.2,000.0,032.6,025.9,16.3,0000.0,0020.66,0006.41,0004.43
2024-03-23 06:48:00,SystemResetWarning,0826.4,4.99,000.00,024.0,023.2,000.0,032.6,025.9,16.3,0000.0,0020.56,0006.28,0004.35
2024-03-23 06:49:00,SystemResetWarning,0826.4,5.00,000.00,024.0,023.2,000.0,032.6,025.9,16.3,0000.0,0021.50,0006.22,0004.26
2024-03-23 06:50:00,SystemResetWarning,0826.4,5.01,000.00,024.0,023.2,000.0,032.6,025.9,16.2,0000.0,0021.34,0006.07,0004.14
2024-03-23 06:51:00,SystemResetWarning,0826.4,5.01,000.00,024.0,023.2,000.0,032.6,025.9,16.2,0000.0,0021.63,0005.91,0004.01
2024-03-23 06:52:00,SystemResetWarning,0826.4,4.99,000.00,024.0,023.2,000.0,032.6,025.9,16.3,0000.0,0022.03,0005.74,0003.88
2024-03-23 06:53:00,SystemResetWarning,0826.4,4.99,000.00,024.0,023.2,000.0,032.6,025.9,16.3,0000.0,0021.02,0005.60,0003.76
2024-03-23 06:54:00,SystemResetWarning,0826.3,5.00,000.00,024.0,023.2,000.0,032.6,025.9,16.3,0000.0,0019.25,0005.41,0003.65
2024-03-23 06:55:00,SystemResetWarning,0826.3,5.00,000.00,024.0,023.2,000.0,032.6,025.9,16.3,0000.0,0018.28,0005.25,0003.54
2024-03-23 06:56:00,SystemResetWarning,0826.3,5.01,000.00,024.0,023.2,000.0,032.6,025.9,16.3,0000.0,0017.75,0005.14,0003.43
2024-03-23 06:57:00,SystemResetWarning,0826.2,5.01,000.00,024.0,023.2,000.0,032.6,025.9,16.3,0000.0,0018.30,0005.08,0003.37
2024-03-23 06:58:00,SystemResetWarning,0826.2,5.01,000.00,024.0,023.2,000.0,032.6,025.9,16.3,0000.0,0019.12,0005.03,0003.33
2024-03-23 06:59:00,SystemResetWarning,0826.2,4.99,000.00,024.0,023.2,000.0,032.6,025.9,16.3,0000.0,0019.13,0004.98,0003.28
